Flag for New Zealand Weather past 2 weeks in Wellington, New Zealand

Now
68 °F

Mild.


Feels Like: 68 °F
Forecast: 64 / 70 °F
Wind: 17 mph from Northeast

Location: Wellington Airport

Current Time: Mar 4, 2015 at 8:39:01 PM

Latest Report: Mar 4, 2015 at 8:00 PM


Visibility: N/A

Pressure: 29.80 "Hg

Humidity: 73%

Dew point: 59 °F

Location of WellingtonLocation

Historic Weather in Wellington — Graph

°F

Wellington temperature yesterday

Maximum temperature yesterday: 77 °F (at 3:00 PM)
Minimum temperature yesterday: 64 °F (at 4:00 AM)
Average temperature yesterday: 69 °F

Past Weeks' High & Low Weather Summary

 TemperatureHumidityPressure
High77 °F (Mar 3, 3:00 PM)100% (Feb 22, 4:00 PM)30.30 "Hg (Feb 22, 4:00 PM)
Low52 °F (Feb 27, 4:00 AM)39% (Feb 18, 4:00 PM)29.80 "Hg (Mar 4, 5:30 PM)
Average65 °F76%30.06 "Hg
* Reported Feb 17 7:00 PM — Mar 4 7:30 PM, Wellington, Weather by CustomWeather, © 2015

Note: Actual official high and low records may vary slightly from our data, if they occured in-between our weather recording intervals... More about our weather records

Advertising

Wellington weather history for previous 24 hours

 ConditionsComfort  
Time TempWeatherWind HumidityBarometerVisibility
7:30 PM
Wed, Mar 4
68 °FMild.16 mph78%29.83 "HgN/A
7:00 PM68 °FBroken clouds.16 mph78%29.83 "HgN/A
6:30 PM70 °FPartly sunny.20 mph73%29.83 "HgN/A
6:00 PM70 °FPartly sunny.20 mph73%29.83 "HgN/A
5:30 PM72 °FPartly sunny.18 mph69%29.80 "HgN/A
5:00 PM70 °FBroken clouds.18 mph73%29.83 "HgN/A
4:00 PM73 °FMild.20 mph65%29.83 "HgN/A
3:30 PM73 °FMild.21 mph61%29.83 "HgN/A
3:00 PM73 °FPassing clouds.18 mph65%29.86 "HgN/A
2:30 PM73 °FScattered clouds.18 mph65%29.86 "HgN/A
2:00 PM72 °FPassing clouds.21 mph73%29.86 "HgN/A
1:30 PM72 °FScattered clouds.20 mph73%29.86 "HgN/A
1:00 PM72 °FScattered clouds.17 mph69%29.86 "HgN/A
12:30 PM72 °FPassing clouds.18 mph69%29.86 "HgN/A
12:00 PM72 °FBroken clouds.17 mph69%29.89 "HgN/A
11:30 AM72 °FBroken clouds.20 mph73%29.89 "HgN/A
11:00 AM72 °FPartly sunny.17 mph69%29.89 "HgN/A
10:30 AM70 °FPartly sunny.17 mph73%29.89 "HgN/A
10:00 AM70 °FBroken clouds.17 mph73%29.89 "HgN/A
9:30 AM68 °FMostly cloudy.15 mph78%29.89 "HgN/A
8:30 AM68 °FPartly sunny.15 mph78%29.89 "HgN/A
8:00 AM66 °FPartly sunny.17 mph83%29.89 "HgN/A
7:30 AM66 °FPartly sunny.16 mph83%29.89 "HgN/A
7:00 AM66 °FPassing clouds.14 mph83%29.86 "HgN/A
6:30 AM66 °FPassing clouds.13 mph83%29.86 "HgN/A
6:00 AM66 °FPassing clouds.16 mph83%29.86 "HgN/A
5:30 AM66 °FPassing clouds.21 mph83%29.86 "HgN/A
5:00 AM66 °FMild.18 mph83%29.86 "HgN/A
4:30 AM66 °FMild.17 mph83%29.89 "HgN/A
4:00 AM66 °FMild.18 mph83%29.89 "HgN/A
3:30 AM66 °FPassing clouds.17 mph83%29.89 "HgN/A
3:00 AM66 °FPassing clouds.17 mph83%29.89 "HgN/A
2:30 AM66 °FPassing clouds.17 mph83%29.92 "HgN/A
2:00 AM66 °FPassing clouds.15 mph83%29.92 "HgN/A
1:30 AM66 °FPassing clouds.15 mph83%29.92 "HgN/A
1:00 AM66 °FMild.18 mph83%29.92 "HgN/A
12:30 AM66 °FPassing clouds.20 mph83%29.92 "HgN/A
12:00 AM66 °FPassing clouds.21 mph83%29.92 "HgN/A
11:30 PM
Tue, Mar 3
66 °FPassing clouds.21 mph83%29.92 "HgN/A
11:00 PM66 °FMild.21 mph83%29.92 "HgN/A
10:30 PM66 °FMild.22 mph83%29.92 "HgN/A
10:00 PM66 °FMild.23 mph83%29.92 "HgN/A
9:30 PM66 °FMild.21 mph83%29.92 "HgN/A
9:00 PM66 °FMild.20 mph78%29.92 "HgN/A
8:30 PM68 °FMild.17 mph73%29.95 "HgN/A
8:00 PM68 °FMild.18 mph73%29.92 "HgN/A
Weather by CustomWeather, © 2015

See weather overviewHow to use our weather pages